Theta_e
317 318 318 319 318 317 316 314 314 313 313 314 314 314 314 313 305 302 298 305 309 314 311 301 299 298 300 297 297 297 294 291 291 290 292 291 291 292 294 293 293 294 294 297 302
318 318 319 319 319 318 316 315 313 313 313 313 313 314 313 311 298 295 305 311 312 313 301 298 295 296 295 294 295 296 292 291 291 292 291 291 291 292 292 291 292 293 296 299 301
317 318 319 319 319 319 317 316 314 313 312 312 313 313 312 308 295 293 308 311 312 308 301 299 297 296 292 294 292 290 290 289 289 290 291 290 290 292 291 290 294 293 295 298 299
317 318 319 319 320 320 318 317 315 312 311 311 312 313 310 301 288 296 307 308 308 303 300 297 295 293 291 290 292 288 289 289 290 292 291 290 292 291 291 293 294 295 297 297 298
317 317 318 319 319 320 319 317 315 313 310 311 312 313 301 293 292 300 304 304 302 301 298 295 293 292 290 291 290 289 290 290 291 291 291 291 291 291 291 296 295 295 294 296 297
317 318 318 319 319 319 318 316 314 313 310 311 313 308 295 289 298 298 299 301 300 300 298 297 294 294 292 290 289 290 290 290 291 291 291 289 291 290 293 294 295 294 295 296 296
318 318 318 319 319 319 317 315 313 312 309 310 310 298 294 290 298 299 299 299 300 299 297 297 297 295 293 290 292 289 287 289 289 290 289 289 287 286 294 292 293 293 295 295 295
318 317 318 318 318 318 315 313 311 309 311 310 303 297 291 298 299 298 300 299 301 301 299 299 299 296 293 292 288 286 287 284 286 289 289 288 285 288 291 292 292 293 293 294 295
318 317 318 318 318 316 314 310 309 308 306 301 298 295 289 300 294 297 299 297 299 300 300 299 295 292 292 289 287 286 288 282 284 288 287 287 286 289 291 290 291 292 293 293 293
318 318 318 318 316 313 311 306 307 304 301 298 296 296 293 288 293 295 299 298 296 296 295 295 292 290 288 289 286 286 284 282 282 285 286 285 285 289 291 290 290 291 292 292 291
319 318 318 317 314 310 305 307 303 301 297 289 288 287 288 294 295 295 297 296 294 293 289 289 291 287 284 284 283 283 282 282 284 285 283 285 284 287 290 289 288 289 290 290 291
318 318 317 316 309 306 303 297 293 294 293 293 288 289 291 292 289 293 298 291 290 289 287 290 286 285 286 286 284 283 281 282 284 283 283 284 282 286 287 287 288 289 290 290 290
315 314 312 312 306 302 298 294 297 296 293 291 287 287 287 292 288 290 294 291 287 287 284 288 285 286 285 284 282 283 282 280 280 283 281 281 285 284 285 287 288 289 289 290 290
314 312 311 311 307 300 295 296 298 297 289 287 286 288 290 291 288 293 294 291 288 286 284 285 286 285 284 283 283 281 282 281 280 280 279 281 278 284 283 285 286 288 289 290 290
311 310 309 308 304 299 296 297 297 296 283 286 285 291 291 289 289 290 294 291 286 285 287 285 283 283 282 282 283 281 283 281 278 277 276 276 277 284 282 283 284 287 289 290 290
308 307 307 305 301 296 298 297 296 289 282 285 285 285 289 288 287 289 290 292 289 286 285 283 286 285 284 283 283 282 279 277 277 277 275 271 275 282 283 284 285 287 288 287 288
306 304 302 300 298 298 298 297 287 284 286 286 283 285 284 284 285 285 284 285 285 283 282 280 281 284 284 282 283 280 279 278 276 276 277 267 272 281 285 284 286 286 287 288 288
305 302 298 297 299 299 299 290 282 280 282 287 283 285 284 283 283 283 283 283 283 282 279 280 279 280 283 281 280 277 278 277 272 274 276 268 273 283 283 284 286 285 286 286 287
306 303 300 299 298 301 295 285 286 281 286 284 286 284 284 282 282 283 282 282 283 282 282 278 277 281 282 283 280 278 277 276 271 263 271 277 277 282 283 282 282 283 285 286 287
306 302 299 298 298 300 287 284 285 286 284 285 285 284 283 283 283 284 283 283 283 283 281 279 278 276 280 282 280 279 278 276 276 271 271 276 272 279 284 285 281 282 284 285 285
305 294 298 297 300 293 285 284 283 289 289 284 285 284 283 283 280 283 283 283 284 282 281 278 277 276 278 278 278 277 277 275 276 274 273 271 278 284 282 283 283 283 283 283 284
300 288 298 299 288 285 285 284 288 287 286 286 285 285 283 281 281 280 282 283 285 284 280 280 278 276 278 278 280 278 279 279 276 272 272 271 276 284 282 281 278 280 283 284 284
291 291 298 298 284 283 285 285 287 286 286 284 283 285 284 281 281 282 281 285 285 283 281 281 277 275 276 276 278 277 277 278 275 275 272 273 278 282 278 279 282 279 283 284 285
293 285 289 290 291 287 285 285 284 287 287 285 284 284 281 280 281 282 282 284 285 284 285 284 278 278 277 279 279 275 277 278 277 274 277 275 278 283 284 284 285 286 286 285 285
291 286 287 283 285 285 287 286 281 283 285 285 282 282 282 281 278 279 282 282 283 285 285 282 276 276 277 277 274 276 276 277 273 276 274 278 277 281 284 284 285 285 285 284 284
289 286 288 286 285 284 284 283 283 284 284 283 282 284 283 280 284 282 281 281 282 282 282 282 277 271 272 278 277 274 276 276 275 277 276 276 276 283 285 285 281 282 282 282 283
291 293 290 285 285 283 283 283 284 286 287 288 286 284 282 283 287 288 288 288 287 281 280 278 276 271 275 270 270 271 273 276 277 276 277 273 279 286 280 283 283 283 282 282 283
Wind_Speed
12 13 13 13 12 12 11 9 7 7 6 6 6 6 7 7 5 5 8 9 11 15 12 4 2 3 3 4 3 1 4 5 4 6 3 5 6 3 1 3 2 3 1 3 12
13 14 15 15 14 12 11 9 8 7 6 6 6 7 7 2 3 11 8 14 13 11 4 3 3 2 4 3 3 2 4 3 2 2 2 6 4 4 5 6 6 6 4 7 11
12 13 15 16 15 13 12 10 7 6 6 6 7 8 5 2 3 5 15 16 13 6 1 1 2 2 4 2 3 1 1 4 3 2 1 3 3 2 4 8 8 11 12 11 10
11 12 13 14 15 15 13 11 8 6 6 7 7 7 1 2 0 3 16 15 10 3 2 1 2 3 3 3 2 2 2 1 4 3 2 2 1 4 8 2 1 4 6 10 10
10 12 13 14 15 15 15 14 9 5 5 7 7 7 2 5 4 6 14 10 4 3 5 2 2 2 4 4 2 2 3 1 2 1 2 2 7 7 11 11 5 4 5 9 8
9 11 12 14 15 16 16 16 9 3 3 6 7 4 2 4 4 7 9 5 9 6 6 5 3 3 7 3 2 3 3 2 0 1 1 4 4 2 2 3 14 10 9 9 7
9 10 12 14 17 18 16 15 9 3 3 4 6 2 6 5 2 7 7 4 4 3 4 3 1 1 3 4 2 3 3 3 1 1 1 2 9 12 11 2 7 14 11 9 7
9 10 11 14 16 19 18 15 6 3 5 3 3 1 5 1 2 6 7 2 5 4 4 2 4 7 4 5 3 1 1 2 3 2 2 3 8 1 2 8 11 12 12 11 10
10 10 10 13 15 17 18 11 3 3 3 3 1 2 4 1 2 5 5 3 3 2 4 3 3 4 2 1 1 4 2 3 2 2 3 5 9 3 4 7 12 14 15 14 12
9 9 9 13 14 17 17 2 4 1 3 1 3 2 3 4 4 5 3 4 3 1 1 4 4 3 2 1 2 1 3 3 6 2 4 12 19 21 15 15 19 18 17 14 13
8 6 7 9 12 17 8 1 2 1 10 5 2 2 2 6 2 6 4 3 1 4 3 3 1 2 2 2 3 2 2 6 3 2 7 9 14 24 15 14 16 15 12 10 8
6 7 9 10 7 11 5 7 3 2 1 3 1 1 1 2 2 8 6 1 4 3 3 1 2 3 6 3 2 1 2 4 7 0 6 12 22 22 8 2 3 2 3 3 5
9 10 11 13 3 6 7 5 1 1 1 3 2 2 2 4 3 7 6 2 5 4 4 1 4 5 1 1 2 2 3 3 5 9 1 13 9 3 2 2 3 3 1 1 3
9 9 12 9 2 1 4 3 1 1 2 5 3 3 1 1 2 2 3 2 3 3 1 3 2 2 2 2 3 3 1 1 4 7 5 8 7 8 2 6 2 3 3 1 3
9 9 8 13 3 3 3 3 0 3 2 2 2 2 3 3 3 3 3 1 2 3 1 2 2 2 2 1 1 2 2 2 2 1 4 2 4 5 2 2 2 4 3 1 2
8 9 4 3 3 3 4 2 2 4 2 1 3 3 2 3 3 5 2 4 2 3 3 3 1 2 2 3 2 6 1 2 2 0 3 3 4 6 4 5 6 5 4 1 1
4 13 6 2 3 5 3 2 4 2 2 3 3 3 1 3 2 5 3 2 3 2 0 1 1 1 1 3 3 2 2 3 3 2 3 1 5 11 4 6 3 4 4 4 2
7 5 6 3 3 4 2 5 2 2 2 2 2 1 2 4 1 4 1 2 1 1 2 2 2 1 4 2 2 2 2 2 5 3 5 3 8 3 1 4 5 3 5 8 7
1 2 2 5 5 2 2 2 2 3 1 4 1 2 2 1 2 3 1 2 1 4 3 3 3 2 3 1 2 4 3 2 5 2 3 3 6 16 4 8 10 10 6 7 8
1 1 3 7 6 1 4 2 2 2 2 1 2 1 2 1 2 2 1 3 3 1 1 3 3 1 2 1 5 2 4 2 1 4 6 4 6 6 4 1 1 2 6 7 9
0 2 2 7 2 4 1 2 3 3 2 2 2 2 4 2 2 2 1 2 2 4 2 4 2 3 1 7 5 4 3 2 2 2 4 6 5 7 6 3 6 7 8 10 9
1 1 4 4 3 1 1 5 3 2 1 2 2 4 4 4 3 4 5 4 5 6 4 4 2 5 4 2 2 1 2 6 4 5 2 4 10 2 6 6 5 9 11 13 10
2 1 2 3 1 1 3 3 3 4 3 1 3 4 1 3 4 5 4 2 8 7 6 7 3 4 3 3 1 5 5 4 3 0 10 6 10 2 3 5 8 11 13 12 11
1 1 2 3 1 2 3 4 3 2 3 4 2 1 2 3 4 3 3 3 6 5 6 7 5 6 10 2 4 5 7 11 7 6 11 15 26 17 20 17 18 13 11 12 11
2 1 2 1 1 3 3 3 3 3 2 3 2 7 6 5 3 6 6 2 5 5 6 5 7 7 12 11 6 8 10 13 14 19 12 18 15 20 16 19 17 15 15 14 13
1 2 1 2 3 4 4 6 11 9 8 6 7 5 10 9 9 6 4 5 6 6 9 6 3 3 6 12 12 13 18 17 22 20 18 24 26 26 24 18 14 13 11 11 11
1 1 1 4 3 7 10 8 7 2 7 16 12 10 10 15 16 16 10 8 7 8 12 7 5 5 9 3 5 9 19 22 10 9 17 16 20 5 9 9 7 8 8 11 10
Wind_Direction
23 18 16 15 13 14 7 6 5 10 11 8 9 9 7 4 22 52 45 334 327 329 331 304 49 69 68 83 38 257 220 232 207 186 126 147 184 157 348 220 199 188 249 84 143
19 16 15 13 7 10 10 4 357 354 356 353 354 349 348 11 94 58 352 341 336 337 339 32 114 90 73 74 45 224 227 226 46 102 179 157 214 167 216 191 210 199 167 142 156
13 8 11 8 1 3 2 1 353 339 341 341 335 341 342 178 146 2 344 343 343 340 199 12 90 64 82 49 28 81 247 122 130 119 167 169 225 217 224 221 213 206 186 174 183
7 1 359 359 353 353 354 351 342 334 332 330 329 335 305 223 331 339 341 342 355 75 96 66 52 80 95 117 61 142 75 62 135 141 179 220 304 247 231 294 39 138 177 179 200
357 353 351 348 349 347 347 346 338 323 334 336 334 336 206 69 47 327 335 347 15 41 50 52 67 113 104 104 120 97 139 79 90 153 304 297 256 272 254 240 179 159 199 206 223
343 342 341 342 344 344 345 342 340 299 329 339 341 330 251 85 326 329 336 360 27 47 46 29 79 102 100 76 23 93 111 106 80 142 248 282 277 282 225 280 221 210 222 213 222
339 338 339 338 341 339 341 339 331 300 322 339 352 29 60 88 342 349 2 21 1 39 76 38 20 59 135 113 122 106 145 142 127 3 310 344 251 234 255 263 211 205 202 199 247
332 334 340 337 336 333 336 335 318 308 313 335 14 60 78 354 338 14 359 54 29 40 80 51 62 88 31 125 66 50 212 254 119 323 141 247 278 176 171 200 212 207 213 228 263
324 335 342 339 335 331 333 334 342 322 356 6 98 358 86 333 20 343 12 9 329 60 54 76 67 72 134 121 120 35 271 244 235 49 312 232 283 206 177 210 239 231 233 243 266
323 335 344 335 336 332 335 316 32 116 8 107 91 155 47 351 319 335 352 1 32 341 96 41 52 97 83 41 298 288 282 254 267 55 271 264 266 275 261 259 257 259 261 265 266
325 337 323 329 344 342 355 320 349 114 39 45 356 5 347 328 269 12 0 324 353 59 49 29 102 44 71 59 63 98 265 276 271 23 308 279 285 281 288 266 260 267 261 251 236
356 338 337 346 11 8 37 63 47 7 334 29 30 26 25 350 314 11 353 35 55 68 341 42 66 77 105 88 101 102 280 273 287 278 308 301 291 283 295 232 225 235 192 182 165
15 1 348 336 97 42 63 67 343 253 357 25 22 12 338 345 48 350 359 50 65 64 20 42 94 142 155 152 232 230 242 277 289 315 201 310 274 292 147 231 228 233 330 74 182
11 2 356 341 92 40 56 9 345 238 81 359 15 37 342 354 64 337 12 30 79 127 82 66 92 172 167 221 222 265 119 306 325 336 303 4 290 294 338 305 250 179 182 182 217
6 351 17 27 98 49 14 332 237 233 334 36 1 340 347 16 344 47 357 329 77 103 168 99 170 185 204 33 197 55 40 34 49 71 307 81 248 263 316 143 96 167 143 148 259
25 5 345 38 65 36 330 307 220 34 271 44 307 344 29 28 35 323 18 57 72 109 62 71 30 351 59 77 60 132 99 66 104 183 246 79 296 263 205 163 148 152 146 74 288
84 50 51 355 43 326 304 243 28 168 37 355 347 15 76 344 40 22 15 23 312 300 23 82 113 14 305 185 130 173 258 289 254 230 301 133 245 262 251 218 187 204 176 176 228
85 80 50 55 328 312 250 48 184 45 274 334 302 333 351 353 50 328 234 213 122 102 122 295 227 26 1 335 348 135 279 255 279 273 326 161 238 245 292 310 244 263 283 279 264
357 59 59 1 348 289 61 79 236 199 314 334 232 19 4 47 309 325 279 249 181 189 218 189 215 146 29 30 328 137 204 46 100 97 265 256 268 271 254 258 263 266 257 258 255
46 70 29 336 340 345 71 226 228 247 316 270 276 344 285 288 289 350 300 142 161 193 334 164 255 294 162 205 64 284 118 162 156 283 277 253 270 258 330 10 88 225 258 276 264
15 50 14 340 288 49 112 241 279 280 264 231 218 231 226 260 257 246 280 166 168 129 99 145 263 117 242 202 180 148 194 77 333 277 267 304 266 202 221 225 240 264 264 259 276
357 74 6 324 54 85 185 188 190 240 258 255 258 233 221 172 225 243 240 238 165 159 177 175 199 245 232 73 325 256 239 198 228 195 247 295 271 108 242 259 252 277 281 290 281
57 327 23 318 193 251 353 287 234 196 208 218 252 230 150 222 253 230 223 164 171 181 180 176 198 283 204 159 186 234 193 199 106 108 212 231 261 137 232 263 253 256 279 285 288
92 25 346 50 344 188 262 259 253 287 220 172 258 205 167 250 240 272 241 190 189 217 198 178 204 228 254 331 110 190 203 214 204 216 258 226 271 276 289 300 300 297 286 285 292
19 111 168 4 133 268 233 231 208 253 224 222 212 219 200 254 264 226 244 213 193 215 202 205 236 218 249 259 222 235 232 210 207 229 235 261 249 270 285 289 293 296 294 291 293
165 149 137 284 178 200 201 245 239 234 185 214 230 191 210 228 224 267 211 214 224 178 186 198 228 158 261 257 244 247 245 233 235 243 249 260 273 268 276 285 283 282 280 279 283
122 77 245 244 202 218 226 229 243 242 239 247 221 233 229 235 240 254 252 239 244 186 195 181 188 181 258 20 291 249 227 221 211 214 220 228 238 256 270 256 260 288 260 264 270